Terminal Aerodrome Forecast
Issued by NWS

Home | Current Version | Previous Version | Text Only | Print | Product List | Glossary On
Versions: 1 2 3 4 5 6 7 8 9 10 11 12 13 14 15 16 17 18 19 20 21 22 23 24 25 26 27 28 29 30
000
FTUS43 KGLD 222320
TAFMCK
TAF
KMCK 222320Z 2300/2324 VRB06KT P6SM SKC
     FM230900 VRB05KT 2SM BR SCT005 SCT120
     FM231400 VRB05KT P6SM SCT120 SCT200
     FM231900 22011KT P6SM SCT200=

USA.gov is the U.S. government's official web portal to all federal, state and local government web resources and services.